DateTime,Index
2004082600,0.0
2004082606,0.0
2004082612,0.0
2004082618,0.0
2004082700,0.0
2004082706,0.0
2004082712,0.0
2004082718,1225.0
2004082800,2025.0
2004082806,3025.0
2004082812,3025.0
2004082818,3025.0
2004082900,3600.0
2004082906,4225.0
2004082912,4225.0
2004082918,4900.0
2004083000,5625.0
2004083006,6400.0
2004083012,7225.0
2004083018,8100.0
2004083100,11025.0
2004083106,14400.0
2004083112,15625.0
2004083118,15625.0
2004090100,15625.0
2004090106,15625.0
2004090112,15625.0
2004090118,15625.0
2004090200,14400.0
2004090206,13225.0
2004090212,13225.0
2004090218,13225.0
2004090300,13225.0
2004090306,13225.0
2004090312,12100.0
2004090318,13225.0
2004090400,13225.0
2004090406,15625.0
2004090412,15625.0
2004090418,15625.0
2004090500,13225.0
2004090506,13225.0
2004090512,12100.0
2004090518,11025.0
2004090600,10000.0
2004090606,9025.0
2004090612,8100.0
2004090618,8100.0
2004090700,8100.0
2004090706,7225.0
2004090712,4900.0
2004090718,2025.0
2004090800,2025.0
